Weather History for KJAC - January, 2014

Change the Weather History Date:

Monday, January 6, 2014

  Actual Average Record
Temperature  
Mean Temperature 3 °F -  
Max Temperature 17 °F 22 °F 42 °F (1969)
Min Temperature -11 °F -1 °F -36 °F (1979)
Degree Days  
Heating Degree Days 62    
Moisture  
Dew Point -7 °F    
Average Humidity 81    
Maximum Humidity 92    
Minimum Humidity 49    
Precipitation  
Precipitation 0.00 in - - ()
Sea Level Pressure  
Sea Level Pressure 30.34 in    
Wind  
Wind Speed 4 mph (North)    
Max Wind Speed 9 mph    
Max Gust Speed -    
Visibility 10 miles    
Events      
Averages and records for this station are not official NWS values.
T = Trace of Precipitation, MM = Missing Value Source: NWS Daily Summary

Daily Weather History Graph

Daily Weather History Graph

Search for Another Location

Airport or City:

Trip Planner

Search our weather history database for the weather conditions in past years. The results will help you decide how hot, cold, wet, or windy it might be!

Date:

Astronomy

Jan. 06, 2014 Rise Set
Actual Time 7:56 AM MST 5:01 PM MST
Civil Twilight 7:23 AM MST 5:34 PM MST
Nautical Twilight 6:47 AM MST 6:10 PM MST
Astronomical Twilight 6:13 AM MST 6:44 PM MST
Moon 11:01 AM MST (1/6) 11:52 PM MST (1/6)
Length of Visible Light 10h 10m
Length of Day
9h 05m
Waxing Crescent, 35% of the Moon is Illuminated
Jan 6
Waxing Crescent
Jan 7
First Quarter
Jan 15
Full
Jan 23
Last Quarter
Jan 30
New

Hourly Weather History & Observations

Time (MST) Temp. Windchill Dew Point Humidity Pressure Visibility Wind Dir Wind Speed Gust Speed Precip Events Conditions
12:35 AM -9.4 °F -20.9 °F -11.2 °F 92% 30.33 in 10.0 mi North 4.6 mph - N/A   Clear
12:55 AM -7.6 °F -22.1 °F -11.2 °F 84% 30.32 in 10.0 mi North 6.9 mph - N/A   Clear
1:15 AM -7.6 °F -18.8 °F -11.2 °F 84% 30.33 in 10.0 mi NNE 4.6 mph - N/A   Clear
1:35 AM -7.6 °F -18.8 °F -11.2 °F 84% 30.33 in 10.0 mi NNE 4.6 mph - N/A   Clear
2:15 AM -9.4 °F -22.7 °F -13.0 °F 84% 30.35 in 10.0 mi NNE 5.8 mph - N/A   Clear
2:35 AM -7.6 °F - -11.2 °F 84% 30.36 in 10.0 mi Calm Calm - N/A   Clear
2:55 AM -7.6 °F - -11.2 °F 84% 30.37 in 10.0 mi Calm Calm - N/A   Clear
3:15 AM -7.6 °F - -11.2 °F 84% 30.37 in 10.0 mi Calm Calm - N/A   Clear
3:35 AM -7.6 °F -24.6 °F -11.2 °F 84% 30.37 in 10.0 mi North 9.2 mph - N/A   Clear
3:55 AM -9.4 °F -22.7 °F -13.0 °F 84% 30.38 in 10.0 mi North 5.8 mph - N/A   Clear
4:15 AM -11.2 °F -20.6 °F -14.8 °F 84% 30.38 in 10.0 mi NNE 3.5 mph - N/A   Clear
4:55 AM -11.2 °F -24.8 °F -14.8 °F 84% 30.37 in 10.0 mi North 5.8 mph - N/A   Clear
5:15 AM -11.2 °F - -14.8 °F 84% 30.37 in 10.0 mi Calm Calm - N/A   Clear
5:35 AM -11.2 °F -26.4 °F -14.8 °F 84% 30.38 in 10.0 mi North 6.9 mph - N/A   Partly Cloudy
5:55 AM -11.2 °F -26.4 °F -14.8 °F 84% 30.37 in 10.0 mi North 6.9 mph - N/A   Partly Cloudy
6:15 AM -11.2 °F -24.8 °F -13.0 °F 92% 30.37 in 10.0 mi North 5.8 mph - N/A   Clear
6:35 AM -11.2 °F -23.0 °F -14.8 °F 84% 30.38 in 10.0 mi NE 4.6 mph - N/A   Clear
6:52 AM -7.6 °F - -11.2 °F 84% 30.38 in 10.0 mi Calm Calm - N/A   Clear
8:52 AM -7.6 °F - -11.2 °F 84% 30.41 in 10.0 mi Calm Calm - N/A   Clear
9:52 AM -2.2 °F - -9.4 °F 71% 30.42 in 10.0 mi Calm Calm - N/A   Clear
10:51 AM 1.4 °F - -5.8 °F 72% 30.41 in 10.0 mi Calm Calm - N/A   Clear
11:55 AM 6.8 °F - -4.0 °F 61% 30.40 in 10.0 mi Calm Calm - N/A   Clear
12:51 PM 10.4 °F - -0.4 °F 62% 30.37 in 10.0 mi Calm Calm - N/A   Clear
1:51 PM 10.4 °F - -0.4 °F 62% 30.34 in 10.0 mi Calm Calm - N/A   Clear
3:22 PM 15.8 °F - 1.4 °F 53% 30.33 in 10.0 mi Calm Calm - N/A   Clear
3:51 PM 17.6 °F - 1.4 °F 49% 30.32 in 10.0 mi Calm Calm - N/A   Clear
4:56 PM 10.4 °F - 1.4 °F 67% 30.30 in 10.0 mi Calm Calm - N/A   Clear
5:59 PM 5.0 °F - -2.2 °F 72% 30.31 in 10.0 mi Calm Calm - N/A   Clear
6:54 PM 1.4 °F - -2.2 °F 85% 30.32 in 10.0 mi Calm Calm - N/A   Clear
7:53 PM -0.4 °F -8.3 °F -2.2 °F 92% 30.32 in 10.0 mi North 3.5 mph - N/A   Scattered Clouds
8:55 PM 1.4 °F -11.3 °F -2.2 °F 85% 30.30 in 10.0 mi North 6.9 mph - N/A   Mostly Cloudy
9:15 PM 1.4 °F -12.5 °F -0.4 °F 92% 30.29 in 10.0 mi North 8.1 mph - N/A   Scattered Clouds
9:35 PM 1.4 °F -6.2 °F -2.2 °F 85% 30.29 in 10.0 mi North 3.5 mph - N/A   Clear
9:55 PM 1.4 °F -9.9 °F -2.2 °F 85% 30.28 in 10.0 mi NNE 5.8 mph - N/A   Clear
10:15 PM -0.4 °F -13.4 °F -2.2 °F 92% 30.27 in 10.0 mi North 6.9 mph - N/A   Clear
10:35 PM -0.4 °F -13.4 °F -2.2 °F 92% 30.26 in 10.0 mi North 6.9 mph - N/A   Clear
10:55 PM -0.4 °F -12.0 °F -2.2 °F 92% 30.26 in 10.0 mi North 5.8 mph - N/A   Clear
11:15 PM -0.4 °F -12.0 °F -2.2 °F 92% 30.25 in 10.0 mi NNE 5.8 mph - N/A   Clear
11:35 PM -0.4 °F -13.4 °F -2.2 °F 92% 30.25 in 10.0 mi North 6.9 mph - N/A   Clear
11:55 PM -0.4 °F -13.4 °F -2.2 °F 92% 30.24 in 10.0 mi North 6.9 mph - N/A   Clear